Terminal Aerodrome Forecast
Issued by NWS Portland, ME

Home | Current Version | Previous Version | Text Only | Print | Product List | Glossary On
Versions: 1 2 3 4 5 6 7 8 9 10 11 12 13 14
000
FTUS41 KGYX 111120
TAFCON
TAF
KCON 111120Z 1112/1212 00000KT P6SM SKC
     FM111500 26006KT P6SM BKN250
     FM120300 16003KT 1 1/2SM -SN BR OVC020
     FM120900 09004KT 1/2SM SN OVC004=

USA.gov is the U.S. government's official web portal to all federal, state and local government web resources and services.